Location: Doverdale
(52.2833°N, 2.2000°W)
Time: 03:24:27
(UTC+00:00)

In-Cosmos 22 Rocket - Pass Details

Date: 29 October 2020
Orbit: 790 x 888 km, 81.2° (Epoch: 27 November)

Event Time Altitude Azimuth Distance (km) Brightness Sun altitude
Rises 17:30:44 0° 349° (NNW) 3,310 7.3 -7.6°
Reaches altitude 10° 17:33:10 10° 354° (N) 2,382 6.5 -7.9°
Maximum altitude 17:38:26 55° 72° (ENE) 967 4.2 -8.7°
Drops below altitude 10° 17:43:47 10° 150° (SSE) 2,414 6.4 -9.5°
Sets 17:46:15 0° 155° (SSE) 3,358 7.2 -9.9°
